Voltar ao catálogo

STARLINK-5970

AtivoComunicaçõesVLEO
NORAD 56450·PAYLOAD·🇺🇸 United States

Lançado May 10, 2023 de Vandenberg Space Force Base

Loading…

Próximas Passagens (próximas 24 horas)

TLE

AtualizadoSource: CelesTrak SupGP

Época: Sep 14, 2026, 21:33 UTC

1 56450C 23064C   26257.89840278 -.00015699  00000+0 -13158-2 0  2571
2 56450  70.0027  27.4403 0002903 274.7001 190.8210 14.98336483    14

Acompanhe STARLINK-5970 em tempo real com AllMySat

Download on the App Store